Flag for Germany Weather past 2 weeks in Eschweiler, North Rhine-Westphalia, Germany

Now
48 °F

Scattered clouds.


Feels Like: 41 °F
Forecast: 32 / 53 °F
Wind: 20 mph from West

Location: Geilenkirchen Airport

Current Time: Mar 27, 2015 at 1:55:23 PM

Latest Report: Mar 27, 2015 at 12:50 PM


Visibility: N/A

Pressure: 30.09 "Hg

Humidity: 66%

Dew point: 37 °F

Location of EschweilerLocation

Historic Weather in Eschweiler — Graph

°F

Eschweiler temperature yesterday

Maximum temperature yesterday: 46 °F (at 11:50 AM)
Minimum temperature yesterday: 39 °F (at 4:50 AM)
Average temperature yesterday: 42 °F

Past Weeks' High & Low Weather Summary

 TemperatureHumidityPressure
High63 °F (Mar 17, 3:50 PM)100% (Mar 17, 3:50 AM)30.42 "Hg (Mar 17, 3:50 AM)
Low28 °F (Mar 23, 6:50 AM)45% (Mar 17, 3:50 PM)29.65 "Hg (Mar 25, 3:50 AM)
Average43 °F81%30.10 "Hg
* Reported Mar 12 12:50 PM — Mar 27 12:50 PM, Eschweiler, Weather by CustomWeather, © 2015

Note: Actual official high and low records may vary slightly from our data, if they occured in-between our weather recording intervals... More about our weather records

Advertising

Eschweiler weather history for previous 24 hours

 ConditionsComfort  
Time TempWeatherWind HumidityBarometerVisibility
12:50 PM
Fri, Mar 27
48 °FScattered clouds.20 mph66%30.09 "HgN/A
11:50 AM50 °FPartly sunny.21 mph71%30.07 "HgN/A
10:50 AM45 °FPartly sunny.21 mph76%30.07 "HgN/A
9:50 AM45 °FPartly sunny.14 mph76%30.04 "HgN/A
8:50 AM43 °FBroken clouds.16 mph81%30.01 "HgN/A
7:50 AM41 °FPartly sunny.16 mph87%30.01 "HgN/A
6:50 AM41 °FBroken clouds.15 mph81%29.98 "HgN/A
5:50 AM41 °FPartly cloudy.14 mph81%29.92 "HgN/A
4:50 AM41 °FClear.14 mph81%29.92 "Hg10 mi
3:50 AM41 °FClear.15 mph81%29.89 "Hg10 mi
2:50 AM43 °FClear.13 mph81%29.86 "Hg10 mi
1:50 AM45 °FClear.14 mph76%29.86 "Hg10 mi
12:50 AM45 °FClear.15 mph87%29.83 "Hg10 mi
11:50 PM
Thu, Mar 26
45 °FMostly cloudy.12 mph93%29.80 "HgN/A
10:50 PM45 °FMostly cloudy.12 mph93%29.80 "HgN/A
9:50 PM45 °FDrizzle. Overcast.12 mph93%29.77 "HgN/A
8:50 PM43 °FDrizzle. Mostly cloudy.10 mph93%29.74 "HgN/A
7:50 PM41 °FPartly cloudy.12 mph93%29.74 "Hg5 mi
6:50 PM41 °FDrizzle. Broken clouds.12 mph93%29.71 "Hg4 mi
5:50 PM43 °FLight rain. Partly sunny.12 mph81%29.71 "Hg4 mi
4:50 PM41 °FLight rain. Partly sunny.9 mph87%29.71 "HgN/A
3:50 PM43 °FLight rain. Partly sunny.9 mph76%29.74 "Hg5 mi
2:50 PM45 °FLight rain. Broken clouds.7 mph53%29.74 "HgN/A
1:50 PM46 °FPartly sunny.10 mph50%29.74 "HgN/A
Weather by CustomWeather, © 2015

See weather overviewHow to use our weather pages